#timestamp,LO_Frequency,Hit,StdDev 
1538564415.8,286046997.0,N
1538564435.6,286046995.0,N
1538564455.4,286046997.6,N
1538564475.3,286046995.8,N
1538564495.1,286046993.8,N
1538564515.8,286046994.5,N
1538564535.7,286046995.9,N
1538564555.5,286046998.7,N
1538564575.4,286046997.3,N
1538564595.2,286046999.1,N
1538564615.0,286046996.6,N
1538564615.9,286046996.6,N
1538564635.8,286046998.6,N
1538564655.6,286046998.5,N
1538564675.4,286046999.3,N
1538564695.3,286046999.6,N
1538564715.1,286047001.1,N
1538564735.9,286047001.0,N
1538564755.7,286047002.6,N
1538564775.5,286047001.6,N
1538564795.4,286046998.6,N
1538564815.2,286046999.3,N
1538564835.0,286046998.7,N
1538564835.9,286046998.7,N
1538564855.8,286046999.3,N
1538564875.6,286047003.9,N
1538564895.5,286047002.4,N
1538564915.3,286046998.8,N
1538564935.1,286046998.2,N
1538564955.9,286046997.2,N
1538564975.7,286046995.8,N
1538564995.6,286046996.2,N
1538565015.4,286046998.0,N
1538565035.2,286046993.5,N
1538565055.1,286046998.0,N
1538565056.0,286046998.0,N
1538565075.8,286046994.5,N
1538565095.6,286046997.2,N
1538565115.5,286046994.4,N
1538565135.3,286046993.8,N
1538565155.2,286046993.6,N
1538565175.9,286046992.4,N
1538565195.7,286046993.9,N
1538565215.6,286046992.8,N
1538565235.4,286046990.9,N
1538565255.2,286046988.6,Y
1538565275.1,286046996.1,P
1538565276.0,286046996.1,P
1538565295.8,286046999.2,N
1538565315.7,286046998.1,N
1538565335.5,286046998.3,N
1538565355.3,286047000.6,N
1538565375.2,286047000.3,N
1538565395.9,286046999.8,N
1538565415.7,286047000.1,N
1538565435.6,286047001.1,N
1538565455.4,286046998.2,N
1538565475.2,286046998.5,N
1538565495.1,286047001.2,N
1538565496.0,286047001.2,N
1538565515.8,286046997.2,N
1538565535.7,286046998.1,N
1538565555.5,286046998.8,N
1538565575.3,286046999.0,N
1538565595.2,286046997.4,N
1538565615.0,286046994.2,Y
1538565615.9,286046994.2,P
1538565635.8,286046996.3,N
1538565655.6,286046993.9,P
1538565675.4,286046996.0,N
1538565695.3,286046995.5,N
1538565715.1,286046995.3,N
1538565735.8,286046998.2,N
1538565755.7,286046995.7,N
1538565775.5,286046995.4,N
1538565795.4,286046995.1,Y
1538565815.2,286047000.8,P
1538565835.0,286046998.4,N
1538565835.9,286046998.4,N
1538565855.8,286046998.6,N
1538565875.6,286046998.9,N
1538565895.4,286046998.8,N
1538565915.3,286046998.2,N
1538565935.1,286046998.6,N
1538565955.9,286047000.0,N
1538565975.7,286047000.4,N
1538565995.5,286047000.5,N
1538566015.4,286046998.7,N
1538566035.2,286046998.8,N
1538566055.0,286046997.8,N
1538566055.9,286046997.8,N
1538566075.8,286046998.4,N
1538566095.6,286046998.2,N
1538566115.5,286046998.4,N
1538566135.3,286046998.6,N
1538566155.1,286047002.3,N
1538566175.9,286047001.8,N
1538566195.7,286047001.3,N
1538566215.6,286046999.8,N
1538566235.4,286047002.3,N
1538566255.2,286047001.2,N
1538566275.1,286046995.7,N
1538566276.0,286046995.7,N
1538566295.8,286046994.0,Y
1538566315.6,286046996.0,P
1538566335.5,286046997.5,N
1538566355.3,286046999.2,N
1538566375.2,286046999.1,N
1538566395.9,286046997.9,N
1538566415.7,286046997.3,N
1538566435.6,286046999.2,N
1538566455.4,286047001.1,N
1538566475.2,286046998.7,N
1538566495.1,286047002.3,N
1538566496.0,286047002.3,N
1538566515.8,286047000.3,N
1538566535.6,286047002.2,N
1538566555.5,286046998.5,N
1538566575.3,286046998.2,N
1538566595.2,286046997.0,N
1538566615.9,286046999.0,N
1538566635.7,286047000.5,N
1538566655.6,286047000.0,N
1538566675.4,286047002.5,N
1538566695.2,286047000.9,N
1538566715.1,286047002.4,N
1538566716.0,286047002.4,N
1538566735.8,286046999.8,N
1538566755.7,286047000.9,N
1538566775.5,286047000.9,N
1538566795.3,286047000.8,N
1538566815.2,286047000.6,N
1538566835.9,286047000.3,N
1538566855.7,286047000.3,N
1538566875.6,286047002.8,N
1538566895.4,286047002.7,N
1538566915.3,286047000.0,N
1538566935.1,286046998.8,N
1538566936.0,286046998.8,N
1538566955.8,286046998.3,N
1538566975.7,286047001.1,N
1538566995.5,286046999.8,N
1538567015.4,286047002.2,N
1538567035.2,286047001.8,N
1538567055.0,286047002.4,N
1538567055.9,286047002.4,N
1538567075.8,286047004.3,N
1538567095.6,286047000.1,N
1538567115.4,286047002.2,N
1538567135.3,286047002.0,N
1538567155.1,286047002.2,N
1538567175.9,286047000.3,N
1538567195.7,286047002.7,N
1538567215.5,286047002.6,N
1538567235.4,286047001.9,N
1538567255.2,286047001.3,N
1538567275.0,286047003.7,N
1538567275.9,286047003.7,N
1538567295.8,286047003.6,N
1538567315.6,286047002.5,N
1538567335.5,286047000.8,N
1538567355.3,286046998.6,N
1538567375.1,286046996.5,N
1538567395.9,286046997.4,N
1538567415.7,286046999.1,N
1538567435.5,286046996.9,N
1538567455.4,286046999.2,N
1538567475.2,286046996.9,N
1538567495.0,286046999.4,N
1538567496.0,286046999.4,N
1538567515.8,286047001.2,N
1538567535.6,286046999.0,N
1538567555.5,286046996.8,N
1538567575.3,286046996.1,N
1538567595.1,286046996.4,N
1538567615.9,286046993.9,N
1538567635.7,286046991.8,Y
1538567655.6,286046992.6,P
1538567675.4,286046993.2,N
1538567695.2,286046992.2,N
1538567715.1,286046991.7,N
1538567716.0,286046991.7,N
1538567735.8,286046993.9,N
1538567755.6,286046993.6,N
1538567775.5,286046994.8,N
1538567795.3,286046992.5,Y
1538567815.1,286046999.1,P
1538567835.9,286046999.3,N
1538567855.7,286046998.8,N
1538567875.6,286046999.2,N
1538567895.4,286046999.6,N
1538567915.2,286046996.7,N
1538567935.1,286046997.0,N
1538567936.0,286046997.0,N
1538567955.8,286046999.5,N
1538567975.6,286047001.2,N
1538567995.5,286046999.3,N
